Location: *
(51.8167°N, 12.5000°E)
Time: 10:41:19
(UTC+00:00)

Cosmos 1626 - Pass Details

Date: 16 September 2019
Orbit: 493 x 495 km, 82.5° (Epoch: 18 October)

Event Time Altitude Azimuth Distance (km) Brightness Sun altitude
Rises 19:58:41 0° 354° (N) 2,592 6.4 -23.0°
Reaches altitude 10° 20:00:54 10° 2° (N) 1,704 5.3 -23.2°
Enters shadow 20:03:01 28° 25° (NNE) 968 3.6 -23.5°
